Simultaneous Nadir Overpasses (SNOs) Predictions

Prediction of SNOs between AQUA and NPP Satellite Orbit:

Table of predicted SNOs for the next 14.0 days since TLE Epoch: 5/6/2014
Index Date (AQUA) Time (AQUA) Lat,Lon (AQUA) SZA (AQUA ) Date (NPP) Time (NPP) Lat,Lon (NPP) SZA (NPP ) Distance(km) Time Diff (sec)
1 05/08/2014 10:51:43 64.57,-121.38 92.22 05/08/2014 10:51:06 64.58,-121.35 92.25 1.40 37
2 05/08/2014 11:40:05 -68.30, 50.10 91.54 05/08/2014 11:40:44 -68.31, 50.10 91.59 0.31 39
3 05/11/2014 03:07:45 66.14, -4.03 89.97 05/11/2014 03:07:37 66.14, -3.99 89.96 2.07 8
4 05/11/2014 03:56:11 -69.60, 167.63 93.56 05/11/2014 03:57:19 -69.61, 167.68 93.65 2.02 68
5 05/13/2014 18:36:03 -61.86, -59.47 86.42 05/13/2014 18:35:10 -61.85, -59.51 86.34 2.10 53
6 05/13/2014 19:23:55 67.15, 112.90 88.31 05/13/2014 19:24:17 67.15, 112.91 88.28 0.54 22
7 05/16/2014 10:52:01 -63.60, 57.77 88.75 05/16/2014 10:51:38 -63.59, 57.73 88.70 2.33 23
8 05/16/2014 11:39:59 68.51,-129.66 86.32 05/16/2014 11:40:51 68.52,-129.62 86.25 1.71 52
9 05/19/2014 02:20:00 60.15, 3.45 94.11 05/19/2014 02:18:52 60.15, 3.44 94.20 0.78 68
10 05/19/2014 03:07:51 -65.75, 175.58 91.46 05/19/2014 03:07:58 -65.75, 175.59 91.47 0.23 7




NCC Satellite Simultaneous Nadir Overpasses (SNOs) Prediction Service
